SCP
2 2 1 2 1 1 1 2 1 1 1 1 2 2 2 2 2 2 2 2 1 1 1 0 0 1 1 1 1 1 1 1 1 1 1 1 1 1
2 2 2 2 2 2 2 2 2 1 1 1 1 2 2 2 2 2 2 2 2 1 1 0 0 0 0 0 1 1 1 1 0 0 1 1 1 1
2 2 2 2 2 2 2 2 2 2 1 1 1 2 3 3 3 4 3 3 3 2 1 1 0 0 0 0 0 0 0 0 0 0 0 1 1 1
3 3 3 3 2 2 1 1 2 2 2 2 2 2 3 4 5 5 5 5 4 3 2 1 0 0 0 0 0 0 0 0 0 0 0 0 1 1
4 4 4 3 3 2 2 1 2 2 2 2 3 3 4 5 6 5 5 5 4 4 3 1 1 0 0 0 0 0 0 0 0 0 0 0 0 1
5 5 5 4 3 2 2 1 2 2 3 4 4 5 5 6 6 5 5 5 4 4 3 2 1 1 1 0 0 0 0 0 0 0 0 0 0 0
6 6 5 4 2 2 1 1 2 3 4 6 6 6 6 6 5 5 5 5 5 5 4 4 3 3 2 1 1 0 0 0 0 0 0 0 0 0
8 7 5 3 2 1 1 1 2 3 4 6 6 6 6 5 5 5 6 6 6 6 6 5 4 4 4 2 1 0 0 0 0 0 0 0 0 0
9 8 6 3 2 2 2 2 2 3 3 4 5 5 6 6 6 6 6 6 6 6 6 5 5 4 4 3 2 0 0 0 0 0 0 0 0 0
9 8 6 4 2 2 3 3 3 3 3 3 4 5 5 5 5 5 4 4 5 5 5 5 4 4 3 3 2 0 0 0 0 0 0 0 0 0
7 7 6 4 3 3 3 4 4 4 4 3 3 3 3 3 3 3 3 3 4 4 5 4 3 3 3 3 2 1 0 0 0 0 0 0 0 0
6 6 5 3 3 2 3 4 4 4 4 4 3 3 3 2 2 2 2 3 3 4 4 4 3 2 2 2 2 2 1 1 0 0 0 0 0 0
6 5 4 3 2 1 2 3 4 4 4 5 4 4 4 4 4 3 3 3 3 3 3 3 3 2 2 2 3 3 2 1 1 1 0 0 0 0
5 5 4 3 1 1 1 2 2 3 4 5 5 5 5 5 5 5 4 4 3 3 3 3 3 3 3 3 3 3 2 2 2 1 1 1 0 0
4 4 4 2 1 1 1 1 1 2 4 5 5 6 6 6 6 5 4 4 3 3 3 3 3 4 4 3 3 2 2 2 2 2 2 2 1 1
3 3 3 2 2 2 2 2 1 2 3 4 5 6 6 6 5 5 4 3 3 3 2 2 3 3 4 3 3 2 1 2 2 2 2 2 2 2
4 3 3 3 4 4 4 4 3 3 2 3 4 5 5 4 4 3 3 3 2 2 2 2 2 3 3 3 2 1 1 1 1 2 2 2 2 2
4 4 4 4 4 5 5 4 4 3 3 2 3 3 3 3 2 2 2 2 1 1 1 1 1 2 2 1 1 1 1 1 1 1 2 2 2 2
3 3 4 4 4 3 4 4 4 4 3 3 3 3 3 3 2 1 1 1 1 1 1 1 1 1 1 1 0 0 0 1 1 1 1 2 2 2
2 2 2 2 2 2 3 4 6 5 4 3 3 3 3 3 2 1 1 1 1 1 1 1 1 1 0 0 0 0 0 0 1 1 1 1 1 1
1 1 1 1 1 1 2 4 6 6 5 4 3 3 3 3 3 2 1 1 1 1 1 1 1 1 1 1 0 1 1 0 0 0 1 1 1 1
2 1 1 1 1 1 2 3 4 5 6 6 4 3 3 4 3 3 2 1 1 1 1 1 1 1 1 1 0 0 1 1 0 0 0 0 0 1
2 2 2 1 1 2 2 2 3 4 6 7 5 4 4 4 3 3 2 2 2 1 1 1 1 1 1 1 1 0 0 1 1 1 0 0 0 0
Wind_Speed
3 3 3 2 3 3 3 3 4 3 2 2 2 1 1 1 1 2 2 3 4 4 4 4 3 3 4 4 4 4 4 4 4 4 5 6 7 8
2 2 3 3 2 2 3 3 3 4 3 1 1 0 1 2 2 3 2 4 5 5 5 4 4 4 4 4 4 4 4 4 4 4 5 5 5 6
3 3 3 3 2 3 3 3 3 3 4 2 1 0 2 4 2 3 4 4 3 7 6 5 5 4 4 4 4 4 4 5 5 5 5 5 5 5
4 4 4 3 3 3 3 3 3 3 4 4 2 2 3 3 3 4 4 3 3 6 7 6 6 5 5 5 4 4 5 5 5 5 5 5 6 6
5 4 4 3 4 3 4 4 3 3 3 4 4 2 3 2 3 4 4 3 4 4 8 8 7 7 7 6 6 5 5 5 6 6 6 6 6 6
5 4 4 4 4 4 4 4 4 4 4 5 4 3 3 2 3 4 3 3 4 3 2 4 6 9 9 8 7 6 6 6 7 7 7 7 6 7
4 4 4 3 3 4 4 3 4 4 4 4 4 3 3 2 3 3 4 3 3 3 3 4 4 5 7 9 9 8 7 7 7 8 8 7 7 7
4 4 4 5 4 5 4 4 5 5 5 5 4 4 4 4 3 4 4 4 3 2 4 4 4 4 4 3 5 6 6 7 7 8 8 8 8 8
4 5 5 2 4 5 5 7 7 7 6 6 6 6 5 4 4 5 4 5 5 3 3 4 3 4 3 2 6 6 6 6 7 7 8 9 9 10
5 5 5 3 3 4 5 5 6 6 6 7 6 6 6 4 5 6 5 6 6 4 4 5 4 5 3 2 7 7 7 7 7 7 7 8 9 10
5 5 5 5 2 3 5 5 6 5 5 5 5 5 5 5 5 5 5 5 5 4 3 5 5 4 4 4 4 9 8 8 8 7 7 8 8 8
4 4 3 3 2 3 5 5 6 5 5 4 5 6 7 7 8 7 6 6 6 5 2 4 5 4 4 3 3 4 5 7 9 9 9 8 7 6
3 3 1 3 3 4 6 5 5 6 6 6 5 5 5 4 5 6 5 6 6 6 3 4 5 5 5 4 3 3 3 3 4 6 9 9 8 7
3 3 0 3 4 6 5 4 5 7 6 5 5 5 4 4 4 5 5 6 6 7 6 5 6 5 6 6 5 4 4 4 4 4 4 7 9 10
3 1 2 2 5 6 6 6 6 5 5 5 5 5 4 4 4 4 5 6 7 7 6 6 7 6 6 7 6 5 5 4 4 4 4 4 4 5
4 3 5 5 5 4 3 4 4 4 5 5 5 5 4 4 4 4 4 5 5 5 6 6 7 7 7 8 7 6 5 5 4 4 4 5 5 5
3 3 3 3 3 3 3 3 3 3 4 4 5 5 5 4 4 4 4 5 6 6 5 4 5 6 8 8 7 7 6 5 5 4 5 6 5 6
3 3 3 3 4 4 4 3 3 3 4 5 5 5 5 5 5 5 4 5 6 6 5 4 4 4 6 6 6 7 6 6 5 4 5 6 6 5
2 2 3 3 4 4 4 4 3 3 3 4 5 5 6 6 5 5 5 6 6 6 5 5 5 5 7 7 5 5 6 6 6 5 6 6 7 6
2 2 3 3 3 4 4 4 4 4 4 4 5 5 5 6 6 6 5 6 6 6 6 5 5 5 7 7 7 6 7 6 6 6 6 6 6 5
1 2 2 3 3 3 4 4 4 5 5 5 5 5 5 6 6 6 6 6 7 7 7 6 5 5 6 6 7 7 5 6 6 6 7 7 7 7
2 2 3 3 3 3 4 4 4 4 5 5 5 5 5 5 6 7 6 6 6 6 7 6 5 4 5 6 7 7 6 5 6 8 9 9 7 7
2 2 3 3 3 3 4 4 5 5 5 5 5 5 6 6 5 5 6 6 6 6 6 6 6 5 5 6 7 7 8 7 5 5 6 8 11 11
Wind_Direction
230 219 244 244 251 261 263 271 279 279 258 194 228 203 231 207 194 231 241 165 194 210 218 225 229 232 233 238 241 235 233 235 234 236 232 229 227 226
244 266 269 263 264 258 254 256 263 273 280 282 237 242 308 268 192 246 247 177 191 198 206 217 224 233 236 238 238 237 234 233 231 232 234 227 222 219
232 226 237 267 262 254 251 255 255 260 263 266 270 245 246 269 258 255 247 240 195 187 200 214 222 226 230 232 234 236 237 234 232 234 236 228 221 214
229 230 234 235 243 261 260 258 259 256 261 264 261 246 236 240 251 260 258 250 248 169 190 208 216 218 222 224 227 231 233 234 234 234 236 232 224 217
235 232 237 240 247 255 259 260 257 250 253 257 257 250 248 245 246 252 254 260 257 184 188 204 210 214 216 219 222 227 233 235 234 232 234 233 230 223
233 236 238 236 239 249 250 254 261 262 253 258 260 252 244 242 254 260 255 243 260 254 224 217 200 207 213 215 219 223 229 236 236 232 228 226 225 221
227 233 236 239 265 269 277 269 261 258 252 252 259 258 253 251 260 268 272 265 252 252 254 235 212 217 205 209 210 215 223 229 233 231 226 224 223 222
232 238 227 213 219 228 258 278 284 271 276 273 267 270 267 262 267 272 279 276 269 247 261 258 249 246 237 217 168 195 219 230 234 230 227 227 225 222
236 245 252 213 221 233 221 225 237 244 256 271 281 284 280 270 269 265 268 277 282 282 268 267 260 259 251 165 158 189 213 228 234 233 229 225 223 221
236 237 247 249 252 261 255 248 249 237 233 244 265 275 281 285 266 267 270 260 257 247 248 267 264 266 259 219 167 184 204 220 227 229 230 226 222 220
239 236 242 243 242 260 255 255 261 259 228 229 259 271 286 273 266 265 260 261 265 252 231 266 271 274 266 246 186 187 204 214 218 219 224 224 221 221
233 228 225 259 268 260 258 260 264 270 275 245 236 237 240 230 221 244 262 268 275 272 233 254 269 273 269 251 243 218 215 210 212 213 215 217 214 224
249 246 186 160 224 247 260 266 274 280 268 260 253 248 237 236 230 234 253 268 276 278 275 255 270 267 270 274 258 245 248 241 223 218 210 205 203 219
265 272 159 170 218 235 244 264 269 267 265 263 264 263 260 255 252 252 249 255 266 275 282 272 274 275 276 275 274 260 251 251 248 246 236 196 205 212
263 312 291 239 234 223 228 246 253 259 270 271 271 273 276 276 276 263 251 243 249 256 256 253 264 271 271 274 274 268 268 263 252 249 245 238 231 218
244 231 226 232 240 260 246 227 242 263 273 275 279 283 287 279 268 272 272 268 266 262 242 238 246 258 264 269 270 270 268 266 260 255 258 256 243 235
280 254 249 245 245 251 260 263 263 259 263 276 282 285 283 278 273 269 265 267 266 270 268 250 241 243 253 263 265 263 262 261 261 258 254 258 252 242
267 259 273 278 279 281 282 278 270 272 279 279 279 281 281 279 279 278 275 271 272 275 276 272 267 264 260 251 249 265 267 271 268 256 255 260 261 251
240 269 278 282 288 292 292 295 298 294 288 283 282 282 280 277 275 276 274 275 276 275 275 270 266 264 268 272 260 234 268 276 272 266 263 264 266 266
251 278 289 295 298 303 305 307 303 299 293 292 290 287 286 286 284 283 280 282 285 285 283 278 269 269 272 279 286 278 236 257 269 271 273 272 272 270
280 289 299 303 307 310 309 306 304 304 308 301 293 293 295 294 291 289 285 280 276 280 281 280 285 275 278 275 272 273 266 228 238 261 272 273 273 268
300 304 316 318 314 308 302 302 300 296 296 295 301 302 297 295 295 293 291 289 284 283 287 290 289 275 273 271 273 277 279 278 245 232 241 250 264 267
303 312 313 307 303 296 299 301 299 301 308 311 309 306 304 302 298 294 293 292 293 290 291 293 292 285 280 277 276 277 278 279 277 269 257 230 229 245